STARLINK-11531, 62841

Orbit data source: Space-Track

STARLINK-11531, 62841 is a payload satellite owned by SpaceX/Seattle (US) in LEO that was launched on Mon, 27 Jan 2025 UTC via an FALCON 9 launch vehicle from the Air Force Eastern Test Range (AFETR). Payload-class satellites include a variety of spacecraft equipped with specific instruments for various scientific and technological missions. These include communications satellites like Starlink; space stations such as the ISS; scientific satellites like the Hubble; Earth observation satellites from companies like Planet Labs, Umbra, and HawkEye 360; GPS; miniature CubeSats for education and research; and military/defense satellites.

Loading next visibility...
Identifier
62841, 2025-019N
Orbit
LEO
Country
Flag of USUS
Related business
Manufacturer
SpaceX/Seattle
Mission
Operational Commercial Communications
Bus & Motor
STARLINK V2MD, Unknown motor
Mass
960 kg wet, ~910 kg dry
Launch date (UTC)
2025-01-27 (8 months ago)
Launch vehicle
FALCON 9
Launch site
Air Force Eastern Test Range (AFETR)
Object type
Payload
Rocket body
Debris
Shape & HBR
Box + 2 Pan, 14.5 m
Radar Cross Section
36.964 m², Large (>1 m²)

Expand to show TLE details & history
Last TLE update: 11 hours ago

TLE from 11 hours ago
0 STARLINK-11531
1 62841U 25019N   25261.02738874  .00244902  00000-0  18406-2 0  9995
2 62841  42.9973 266.8933 0001281 233.0322 127.0429 15.71043005 36720
Epoch: 2025-09-18T00:39Z
TLE epoch observation values (Epoch: 2025-09-18T00:39:26.387Z)
Latitude
0.00003°
Longitude
-100.16149°
Altitude
356.205 km
Speed
7.697 km/s
True Right ascension
17h 47m 34s
True Declination
0° 00' 00"
Sunlit
Object was in daylight at epoch
Visualization orbit readout
Latitude
Unknown
Longitude
Unknown
Altitude
Unknown
Speed
Unknown
Apparent Right ascension
Unknown
Apparent Declination
Unknown
Sunlit
N/A
Visualization observer readout
Local Sidereal Time
04:33:42
Azimuth
Unknown
Elevation
Unknown
Doppler factor
Unknown
Orbital elements
Apogee altitude
358.76 km
Perigee altitude
357.034 km
Semi-major axis
6,736.034 km
Eccentricity
0.00013
Inclination
42.9973°
RAAN
266.8933°
Arg. of periapsis
233.0322°
True anomaly
127.05462°
Mean anomaly
127.0429°
Eccentric anomaly
127.04876°
Mean motion
3.92588 °/min
Orbital period
91.7 mins
BSTAR
0.0018406
Loading maneuver chart data...
Computing Atmospheric mass density...
Loading historical data...
Loading historical data...
Loading historical data...
Loading historical data...
Loading historical data...
Loading historical data...
Loading historical data...

Documentation

Showing up to 5 results
|